| time (UTC) | temp F | wind direction | speed MPH | gust MPH | rain 1hr in | rain 24hr in | rain mn in | humidity % | barometer mb |
| 20260506051202 | 48 | 99 | 0.0 | 0.0 | 0.02 | 0.89 | 0.11 | 92 | 1008.8 |
| 20260506050201 | 49 | 99 | 0.0 | 0.0 | 0.00 | 0.87 | 0.09 | 92 | 1008.8 |
| 20260506044201 | 48 | 99 | 0.0 | 2.0 | 0.05 | 0.83 | 0.05 | 92 | 1008.4 |
| 20260506043203 | 48 | 99 | 0.0 | 1.0 | 0.03 | 0.81 | 0.03 | 92 | 1008.4 |
| 20260506042201 | 49 | 99 | 0.0 | 2.0 | 0.01 | 0.79 | 0.01 | 92 | 1008.4 |
| 20260506041202 | 49 | 99 | 0.0 | 4.0 | 0.00 | 0.78 | 0.00 | 92 | 1008.2 |
| 20260506040202 | 48 | 301 | 0.0 | 0.0 | 0.00 | 0.78 | 0.00 | 92 | 1008.2 |
| 20260506035202 | 48 | 290 | 0.0 | 0.0 | 0.04 | 0.78 | 0.78 | 92 | 1008.0 |
| 20260506034201 | 48 | 290 | 0.0 | 0.0 | 0.04 | 0.78 | 0.78 | 92 | 1008.3 |
| 20260506033223 | 49 | 290 | 0.0 | 0.0 | 0.04 | 0.78 | 0.78 | 92 | 1008.3 |
| 20260506032201 | 49 | 290 | 0.0 | 0.0 | 0.04 | 0.78 | 0.78 | 92 | 1008.5 |
| 20260506031226 | 49 | 290 | 0.0 | 0.0 | 0.02 | 0.76 | 0.76 | 92 | 1008.6 |
| 20260506030202 | 49 | 290 | 0.0 | 0.0 | 0.01 | 0.75 | 0.75 | 92 | 1008.6 |
| 20260506025203 | 49 | 290 | 0.0 | 1.0 | 0.05 | 0.73 | 0.73 | 92 | 1008.5 |
| 20260506024202 | 49 | 290 | 0.0 | 0.0 | 0.04 | 0.72 | 0.72 | 92 | 1009.0 |
| 20260506023204 | 49 | 290 | 0.0 | 0.0 | 0.03 | 0.71 | 0.71 | 92 | 1008.8 |
| 20260506022201 | 49 | 290 | 0.0 | 0.0 | 0.02 | 0.70 | 0.70 | 92 | 1008.9 |
| 20260506021202 | 49 | 290 | 0.0 | 0.0 | 0.01 | 0.69 | 0.69 | 92 | 1008.8 |
| 20260506020201 | 49 | 290 | 0.0 | 0.0 | 0.01 | 0.69 | 0.69 | 92 | 1008.6 |
| 20260506015202 | 49 | 290 | 0.0 | 0.0 | 0.01 | 0.68 | 0.68 | 92 | 1008.8 |
| 20260506014222 | 49 | 290 | 0.0 | 0.0 | 0.01 | 0.68 | 0.68 | 92 | 1009.0 |
| 20260506013202 | 49 | 290 | 0.0 | 1.0 | 0.01 | 0.68 | 0.68 | 92 | 1009.0 |
| 20260506012202 | 49 | 290 | 0.0 | 0.0 | 0.00 | 0.67 | 0.67 | 92 | 1008.7 |
| 20260506011203 | 49 | 290 | 0.0 | 0.0 | 0.00 | 0.67 | 0.67 | 92 | 1008.6 |
| 20260506010202 | 49 | 290 | 0.0 | 0.0 | 0.00 | 0.67 | 0.67 | 92 | 1008.5 |
| 20260506005202 | 49 | 290 | 0.0 | 0.0 | 0.13 | 0.66 | 0.66 | 91 | 1008.6 |
| 20260506004224 | 49 | 290 | 0.0 | 0.0 | 0.11 | 0.64 | 0.64 | 91 | 1008.8 |
| 20260506003201 | 49 | 290 | 0.0 | 0.0 | 0.09 | 0.62 | 0.62 | 91 | 1008.8 |
| 20260506002225 | 49 | 290 | 0.0 | 2.0 | 0.06 | 0.59 | 0.59 | 91 | 1008.5 |
| 20260506001202 | 49 | 289 | 1.0 | 3.0 | 0.04 | 0.57 | 0.57 | 91 | 1008.5 |
| 20260506000205 | 49 | 290 | 0.0 | 3.0 | 0.00 | 0.53 | 0.53 | 91 | 1008.2 |
| 20260505235202 | 49 | 284 | 0.0 | 0.0 | 0.10 | 0.50 | 0.50 | 91 | 1008.4 |
| 20260505234204 | 49 | 284 | 0.0 | 0.0 | 0.07 | 0.47 | 0.47 | 91 | 1008.1 |
| 20260505233201 | 49 | 283 | 0.0 | 2.0 | 0.05 | 0.45 | 0.45 | 91 | 1008.2 |
| 20260505231202 | 49 | 331 | 0.0 | 2.0 | 0.02 | 0.42 | 0.42 | 90 | 1007.7 |
| 20260505230203 | 49 | 332 | 0.0 | 0.0 | 0.01 | 0.41 | 0.41 | 90 | 1007.8 |
| 20260505225201 | 49 | 332 | 0.0 | 2.0 | 0.11 | 0.39 | 0.39 | 90 | 1008.0 |
| 20260505224224 | 49 | 308 | 1.0 | 4.0 | 0.09 | 0.37 | 0.37 | 90 | 1008.1 |
| 20260505223225 | 50 | 307 | 1.0 | 5.0 | 0.07 | 0.35 | 0.35 | 90 | 1008.1 |
| 20260505222203 | 50 | 334 | 3.0 | 5.0 | 0.05 | 0.33 | 0.33 | 89 | 1008.1 |
| 20260505221202 | 50 | 315 | 2.0 | 4.0 | 0.03 | 0.31 | 0.31 | 89 | 1008.4 |
| 20260505220204 | 50 | 309 | 0.0 | 5.0 | 0.01 | 0.29 | 0.29 | 89 | 1007.8 |
| 20260505215201 | 50 | 309 | 2.0 | 7.0 | 0.18 | 0.26 | 0.26 | 88 | 1007.9 |
| 20260505214202 | 51 | 300 | 3.0 | 6.0 | 0.16 | 0.24 | 0.24 | 88 | 1007.9 |
| 20260505213224 | 51 | 293 | 3.0 | 8.0 | 0.13 | 0.21 | 0.21 | 87 | 1007.7 |
| 20260505212201 | 52 | 316 | 3.0 | 13.0 | 0.09 | 0.17 | 0.17 | 86 | 1007.4 |
| 20260505211202 | 54 | 295 | 8.0 | 17.0 | 0.05 | 0.13 | 0.13 | 87 | 1007.4 |
| 20260505210203 | 54 | 320 | 4.0 | 7.0 | 0.00 | 0.08 | 0.08 | 86 | 1007.0 |
| 20260505205201 | 55 | 248 | 3.0 | 8.0 | 0.01 | 0.05 | 0.05 | 85 | 1006.4 |
| 20260505204224 | 55 | 250 | 2.0 | 8.0 | 0.00 | 0.04 | 0.04 | 84 | 1006.1 |
| 20260505203202 | 56 | 257 | 2.0 | 6.0 | 0.00 | 0.04 | 0.04 | 82 | 1005.8 |
| 20260505202202 | 56 | 224 | 1.0 | 8.0 | 0.00 | 0.04 | 0.04 | 81 | 1005.8 |
| 20260505201203 | 56 | 263 | 2.0 | 9.0 | 0.00 | 0.04 | 0.04 | 81 | 1006.0 |
| 20260505200202 | 58 | 226 | 4.0 | 15.0 | 0.00 | 0.04 | 0.04 | 78 | 1005.9 |
| 20260505195222 | 60 | 225 | 3.0 | 7.0 | 0.00 | 0.04 | 0.04 | 74 | 1005.6 |
| 20260505194203 | 63 | 213 | 4.0 | 7.0 | 0.00 | 0.04 | 0.04 | 70 | 1005.1 |
| 20260505193201 | 65 | 267 | 5.0 | 17.0 | 0.00 | 0.04 | 0.04 | 70 | 1004.9 |
| 20260505192202 | 65 | 250 | 5.0 | 16.0 | 0.00 | 0.04 | 0.04 | 69 | 1004.7 |
| 20260505191202 | 67 | 285 | 10.0 | 22.0 | 0.00 | 0.04 | 0.04 | 66 | 1004.8 |
| 20260505190203 | 67 | 282 | 6.0 | 17.0 | 0.00 | 0.04 | 0.04 | 66 | 1004.7 |
| 20260505185203 | 67 | 273 | 7.0 | 23.0 | 0.00 | 0.04 | 0.04 | 66 | 1004.7 |
| 20260505184222 | 67 | 284 | 5.0 | 21.0 | 0.00 | 0.04 | 0.04 | 66 | 1004.5 |
| 20260505183202 | 67 | 293 | 11.0 | 25.0 | 0.00 | 0.04 | 0.04 | 67 | 1004.3 |
| 20260505182202 | 67 | 272 | 8.0 | 21.0 | 0.00 | 0.04 | 0.04 | 66 | 1004.5 |
| 20260505180201 | 67 | 281 | 12.0 | 23.0 | 0.00 | 0.04 | 0.04 | 67 | 1004.2 |
| 20260505175223 | 66 | 260 | 8.0 | 29.0 | 0.00 | 0.04 | 0.04 | 69 | 1004.2 |
| 20260505174201 | 67 | 235 | 9.0 | 27.0 | 0.00 | 0.04 | 0.04 | 67 | 1004.1 |
| 20260505173202 | 67 | 282 | 15.0 | 28.0 | 0.00 | 0.04 | 0.04 | 67 | 1004.1 |
| 20260505172203 | 67 | 278 | 10.0 | 29.0 | 0.00 | 0.04 | 0.04 | 68 | 1004.1 |
| 20260505171203 | 67 | 275 | 8.0 | 20.0 | 0.00 | 0.04 | 0.04 | 69 | 1004.1 |
| 20260505170202 | 66 | 256 | 7.0 | 19.0 | 0.00 | 0.04 | 0.04 | 69 | 1004.1 |
| 20260505165201 | 66 | 252 | 10.0 | 23.0 | 0.00 | 0.04 | 0.04 | 68 | 1004.2 |
| 20260505164202 | 66 | 271 | 12.0 | 27.0 | 0.00 | 0.04 | 0.04 | 68 | 1003.8 |
| 20260505163202 | 66 | 261 | 5.0 | 26.0 | 0.00 | 0.04 | 0.04 | 71 | 1003.8 |
| 20260505162202 | 65 | 284 | 9.0 | 19.0 | 0.00 | 0.04 | 0.04 | 70 | 1003.7 |
| 20260505161202 | 64 | 255 | 7.0 | 16.0 | 0.00 | 0.04 | 0.04 | 72 | 1003.5 |
| 20260505160202 | 63 | 234 | 7.0 | 21.0 | 0.00 | 0.04 | 0.04 | 70 | 1003.7 |
| 20260505153201 | 64 | 289 | 12.0 | 32.0 | 0.00 | 0.04 | 0.04 | 67 | 1003.8 |
| 20260505152202 | 65 | 254 | 7.0 | 19.0 | 0.00 | 0.04 | 0.04 | 68 | 1003.2 |
| 20260505151202 | 64 | 264 | 7.0 | 18.0 | 0.00 | 0.04 | 0.04 | 71 | 1002.9 |
| 20260505150224 | 63 | 268 | 6.0 | 17.0 | 0.00 | 0.04 | 0.04 | 72 | 1002.7 |
| 20260505140202 | 63 | 239 | 5.0 | 12.0 | 0.00 | 0.04 | 0.04 | 71 | 1002.7 |
| 20260505130202 | 62 | 276 | 6.0 | 14.0 | 0.00 | 0.04 | 0.04 | 72 | 1002.2 |
| 20260505124202 | 64 | 249 | 4.0 | 10.0 | 0.00 | 0.04 | 0.04 | 70 | 1001.6 |
| 20260505123201 | 64 | 231 | 4.0 | 11.0 | 0.00 | 0.04 | 0.04 | 71 | 1001.6 |
| 20260505122203 | 64 | 240 | 5.0 | 13.0 | 0.00 | 0.04 | 0.04 | 70 | 1001.5 |
| 20260505121201 | 64 | 254 | 6.0 | 16.0 | 0.00 | 0.04 | 0.04 | 70 | 1001.5 |
| 20260505120202 | 64 | 240 | 3.0 | 11.0 | 0.00 | 0.04 | 0.04 | 72 | 1001.2 |
| 20260505115203 | 64 | 228 | 2.0 | 10.0 | 0.00 | 0.04 | 0.04 | 71 | 1001.0 |
| 20260505114203 | 64 | 225 | 4.0 | 8.0 | 0.00 | 0.04 | 0.04 | 71 | 1000.9 |
| 20260505113203 | 64 | 236 | 4.0 | 10.0 | 0.00 | 0.04 | 0.04 | 72 | 1000.9 |
| 20260505112201 | 63 | 230 | 3.0 | 10.0 | 0.00 | 0.04 | 0.04 | 73 | 1000.9 |
| 20260505111202 | 63 | 227 | 3.0 | 11.0 | 0.00 | 0.04 | 0.04 | 74 | 1000.8 |
| 20260505110203 | 62 | 212 | 3.0 | 6.0 | 0.00 | 0.04 | 0.04 | 76 | 1000.6 |
| 20260505102202 | 60 | 174 | 3.0 | 5.0 | 0.00 | 0.04 | 0.04 | 83 | 1000.0 |
| 20260505101202 | 59 | 215 | 3.0 | 10.0 | 0.00 | 0.04 | 0.04 | 85 | 1000.0 |
| 20260505100203 | 58 | 218 | 2.0 | 5.0 | 0.00 | 0.04 | 0.04 | 88 | 1000.0 |
| 20260505095202 | 57 | 236 | 1.0 | 4.0 | 0.00 | 0.04 | 0.04 | 89 | 1000.0 |
| 20260505094202 | 57 | 172 | 0.0 | 0.0 | 0.00 | 0.04 | 0.04 | 90 | 1000.0 |
| 20260505093224 | 56 | 171 | 0.0 | 0.0 | 0.00 | 0.04 | 0.04 | 90 | 999.9 |
| 20260505092223 | 56 | 171 | 0.0 | 0.0 | 0.00 | 0.04 | 0.04 | 90 | 999.9 |
| 20260505091225 | 56 | 171 | 0.0 | 0.0 | 0.00 | 0.04 | 0.04 | 91 | 999.8 |
| 20260505090223 | 55 | 171 | 0.0 | 2.0 | 0.00 | 0.04 | 0.04 | 91 | 999.8 |
| 20260505085201 | 55 | 171 | 0.0 | 4.0 | 0.00 | 0.04 | 0.04 | 91 | 999.9 |
| 20260505084202 | 55 | 196 | 0.0 | 2.0 | 0.00 | 0.04 | 0.04 | 91 | 999.9 |
| 20260505083202 | 55 | 197 | 0.0 | 2.0 | 0.00 | 0.04 | 0.04 | 91 | 1000.1 |
| 20260505082223 | 54 | 197 | 0.0 | 0.0 | 0.00 | 0.04 | 0.04 | 91 | 1000.0 |
| 20260505081203 | 54 | 198 | 0.0 | 2.0 | 0.00 | 0.04 | 0.04 | 90 | 1000.3 |
| 20260505080202 | 54 | 198 | 0.0 | 0.0 | 0.00 | 0.04 | 0.04 | 90 | 1000.4 |
| 20260505075202 | 54 | 198 | 0.0 | 2.0 | 0.00 | 0.04 | 0.04 | 90 | 1000.4 |
| 20260505074202 | 54 | 197 | 0.0 | 3.0 | 0.00 | 0.04 | 0.04 | 90 | 1000.5 |
| 20260505073204 | 54 | 197 | 1.0 | 3.0 | 0.00 | 0.04 | 0.04 | 90 | 1000.6 |
| 20260505072203 | 54 | 197 | 1.0 | 3.0 | 0.00 | 0.04 | 0.04 | 90 | 1000.7 |
| 20260505071202 | 55 | 197 | 1.0 | 4.0 | 0.00 | 0.04 | 0.04 | 89 | 1000.8 |
| 20260505070202 | 55 | 197 | 1.0 | 3.0 | 0.00 | 0.04 | 0.04 | 89 | 1001.0 |
| 20260505065203 | 55 | 196 | 2.0 | 4.0 | 0.01 | 0.04 | 0.04 | 89 | 1001.0 |
| 20260505064201 | 56 | 196 | 2.0 | 5.0 | 0.01 | 0.04 | 0.04 | 88 | 1001.3 |
| 20260505063202 | 56 | 197 | 2.0 | 6.0 | 0.01 | 0.04 | 0.04 | 88 | 1001.8 |
| 20260505062203 | 56 | 233 | 1.0 | 3.0 | 0.01 | 0.04 | 0.04 | 87 | 1001.7 |
| 20260505061203 | 56 | 233 | 1.0 | 8.0 | 0.01 | 0.04 | 0.04 | 86 | 1002.0 |
| 20260505060204 | 57 | 233 | 1.0 | 9.0 | 0.00 | 0.03 | 0.03 | 84 | 1001.9 |
| 20260505055203 | 59 | 226 | 4.0 | 9.0 | 0.03 | 0.03 | 0.03 | 82 | 1002.1 |
| 20260505054201 | 60 | 239 | 5.0 | 15.0 | 0.01 | 0.01 | 0.01 | 78 | 1002.0 |